Aeroporto :
LOGIN :

Iscrizione | Disclaimer

   EN    FR    IT 

 










Sommario :    VFR   VFR Marginale   IFR   IFR Intensivo   IFR Molto Intensivo
Visibilità : 
Base nubi : 
>= 8 km
>= 3000ft
5 / 8 km
1000 / 3000 ft
1500m / 5 km
500 / 1000 ft
800 / 1500m
200 / 500 ft
< 800m
< 200 ft
Simboli :   Temporali  Nebbia  Neve Forte  Precipitazioni Forti  Vento > 20 kt
SIGMETs :   Varie  Temporali  Ghiacco  Turbolenza  Onda orograficha  Ceneri Vulcaniche






- Altitudine del aeroporto : 628 ft
- Codice IATA : CMR


LFGA - Colmar-Houssen

ULTIMO METAR :
  • 250330Z AUTO 19005KT 9999 ///TCU 16/14 Q1020

METARs OBSOLETI :
  • 250300Z AUTO 17006KT 9999 -RA FEW029/// OVC066/// ///TCU 16/15 Q1020
  • 250230Z AUTO 18005KT 9999 -RA OVC058/// ///TCU 16/14 Q1020
  • 250200Z AUTO 16003KT 9999 -RA OVC050/// ///TCU 16/15 Q1020
  • 250130Z AUTO 16004KT 9999 -RA BKN041/// OVC058/// ///TCU 16/15 Q1020
  • 250100Z AUTO VRB03KT 9999 -RA BKN041/// BKN048/// OVC062/// ///TCU 16/15 Q1020
  • 250030Z AUTO 17004KT 9999 OVC038/// ///TCU 16/15 Q1020

TAF N/A



MetMap, La meteo Aeronautica in un colpo d'occhio ! - Copyright ORBIFLY Dicembre 2007 - Disclaimer

ORBIFLY MET'MAP TEAM :

Programmazione e sviluppo : Alexandra Zaïnal
Concezione : Baudouin d'Aumeries
Aiuto per la programmazione : Marc-Olivier Méhu
Supporto tecnico e logistico : Manuel Goepfert
Aiuto per la traduzione : Arnaldo La Scala

Contatto : metmap@orbifly.com




FONTI E CREDITI :

   NOAA